This is the latest recevied weather packets stored in our database for station/object K1JO. If no packets are shown the sender has not sent any weather packets the latest 10 day(s).
| Time | Temp. | Humidity | Pressure | Rain* | Wind** | Luminosity | Snow |
|---|---|---|---|---|---|---|---|
| 1777904939 | 12.78° C | 59% | 1002.3 hPa | 0 mm | - | 431 W/m² | - |
| 1777904636 | 12.78° C | 61% | 1002.4 hPa | 0 mm | - | 324 W/m² | - |
| 1777904333 | 12.78° C | 56% | 1002.4 hPa | 0 mm | - | 287 W/m² | - |
| 1777904030 | 12.78° C | 55% | 1002.3 hPa | 0 mm | - | 325 W/m² | - |
| 1777903727 | 12.78° C | 53% | 1002.2 hPa | 0 mm | - | 275 W/m² | - |
| 1777903423 | 13.89° C | 51% | 1002.5 hPa | 0 mm | - | 314 W/m² | - |
| 1777903119 | 13.89° C | 53% | 1002.4 hPa | 0 mm | - | 719 W/m² | - |
| 1777902816 | 13.89° C | 51% | 1002.6 hPa | 0 mm | - | 625 W/m² | - |
| 1777902513 | 13.33° C | 52% | 1002.8 hPa | 0 mm | - | 608 W/m² | - |
| 1777902210 | 13.33° C | 51% | 1002.8 hPa | 0 mm | - | 591 W/m² | - |
| 1777901908 | 13.33° C | 57% | 1002.9 hPa | 0 mm | - | 583 W/m² | - |
| 1777901605 | 13.33° C | 57% | 1002.8 hPa | 0 mm | - | 570 W/m² | - |
| 1777901302 | 13.89° C | 57% | 1002.9 hPa | 0 mm | - | 426 W/m² | - |
| 1777901000 | 12.78° C | 53% | 1003.2 hPa | 0 mm | - | 567 W/m² | - |
| 1777900698 | 12.78° C | 54% | 1003.1 hPa | 0 mm | - | 540 W/m² | - |
| 1777900394 | 12.22° C | 54% | 1003.2 hPa | 0 mm | - | 527 W/m² | - |
| 1777900091 | 11.67° C | 55% | 1003.2 hPa | 0 mm | - | 510 W/m² | - |
| 1777899788 | 11.67° C | 57% | 1003.3 hPa | 0 mm | - | 495 W/m² | - |
| 1777899484 | 11.67° C | 55% | 1003.2 hPa | 0 mm | - | 483 W/m² | - |
| 1777899183 | 10.56° C | 58% | 1003.2 hPa | 0 mm | - | 471 W/m² | - |
| 1777898880 | 10.56° C | 57% | 1003.3 hPa | 0 mm | - | 457 W/m² | - |
| 1777898577 | 10.56° C | 58% | 1003.3 hPa | 0 mm | - | 444 W/m² | - |
| 1777898274 | 10° C | 63% | 1003.2 hPa | 0 mm | - | 432 W/m² | - |
| 1777897971 | 10° C | 58% | 1003.4 hPa | 0 mm | - | 409 W/m² | - |
| 1777897667 | 10° C | 60% | 1003.4 hPa | 0 mm | - | 371 W/m² | - |
* Rain latest hour (hover to see other rain measurements)
** Current wind speed in m/s (hover to see current wind gust speed)